Stations météo

réclame
Mon MeteoGroup
Hemling, Suède (2265): Température de l'air & dewpoint: 12.02.2019 20:00:00 - 18.02.2019 20:00:00 (CET)Hemling, Suède (2265): Vitesse du vent & gusts: 12.02.2019 20:00:00 - 18.02.2019 20:00:00 (CET)Hemling, Suède (2265): Direction du vent: 12.02.2019 20:00:00 - 18.02.2019 20:00:00 (CET)Hemling, Suède (2265): reduced air pressure: 12.02.2019 20:00:00 - 18.02.2019 20:00:00 (CET)Hemling, Suède (2265): visibility: 12.02.2019 20:00:00 - 18.02.2019 20:00:00 (CET)Hemling, Suède (2265): Quantités de précipitations: 12.02.2019 20:00:00 - 18.02.2019 20:00:00 (CET)
Date & Time tt [°C] td [°C] ff [km/h] ff [knt] fx [km/h] fx [knt] dd ppp [hPa] vv [km] rr [mm]
18.02.2019 20:00:00 - - - - - - - - - -
18.02.2019 19:00:00 -1,0 -1,0 4 2 6 4 E 998,4 21 0,0
18.02.2019 18:00:00 -2,1 -2,1 0 0 5 3 N 998,9 12 0,0
18.02.2019 17:00:00 -1,2 -1,5 3 2 11 6 WNW 999,2 26 0,0
18.02.2019 16:00:00 0,2 -0,8 5 3 18 10 NNE 999,6 34 0,0
18.02.2019 15:00:00 0,7 -0,8 7 4 10 5 SSW 1000,1 39 0,0
18.02.2019 14:00:00 0,4 -1,4 2 1 9 5 ESE 1001,1 36 0,0
18.02.2019 13:00:00 0,5 -1,6 4 2 10 5 S 1001,6 36 0,0
18.02.2019 12:00:00 0,3 -1,3 5 3 13 7 ESE 1003,1 38 0,0
18.02.2019 11:00:00 0,2 -1,9 6 4 12 6 SSE 1003,6 44 0,0
18.02.2019 10:00:00 -0,2 -2,3 6 3 13 7 ESE 1004,5 36 0,0
18.02.2019 09:00:00 -0,6 -1,7 8 4 15 8 E 1005,3 27 0,0
18.02.2019 08:00:00 -0,9 -1,6 5 3 12 7 ENE 1006,1 23 0,0
18.02.2019 07:00:00 -0,9 -1,6 7 4 23 12 SE 1007,1 23 0,0
18.02.2019 06:00:00 -0,8 -1,9 10 6 22 12 SSE 1008,1 33 0,0
18.02.2019 05:00:00 -1,0 -2,3 10 6 19 11 SSE 1009,5 31 0,0
18.02.2019 04:00:00 -1,0 -2,3 10 5 24 13 SSE 1011,0 39 0,0
18.02.2019 03:00:00 -1,5 -2,2 13 7 27 15 SSE 1012,6 25 0,1
18.02.2019 02:00:00 -1,9 -2,0 12 6 18 10 SE 1013,8 1,1 0,7
18.02.2019 01:00:00 -2,0 -2,6 10 5 16 9 SSE 1015,3 1,9 0,6
18.02.2019 00:00:00 -1,8 -3,8 7 4 16 9 SSE 1016,0 2,6 0,1
17.02.2019 23:00:00 -2,1 -5,2 11 6 16 9 SE 1016,6 50 0,0
17.02.2019 22:00:00 -1,8 -6,5 9 5 16 9 SSE 1017,7 50 0,0
17.02.2019 21:00:00 -3,1 -6,9 6 3 11 6 S 1018,5 50 0,0
17.02.2019 20:00:00 -4,7 -6,8 3 2 5 3 SSE 1018,6 49 0,0
17.02.2019 19:00:00 -4,5 -7,4 2 1 3 2 ESE 1018,8 39 0,0
17.02.2019 18:00:00 -5,2 -6,6 0 0 2 1 N 1019,1 22 0,0
17.02.2019 17:00:00 -4,7 -6,7 0 0 3 2 N 1019,1 28 0,0
17.02.2019 16:00:00 -2,4 -6,2 0 0 5 3 N 1018,8 26 0,0
17.02.2019 15:00:00 -0,4 -9,1 3 2 8 5 E 1018,4 50 0,0
17.02.2019 14:00:00 1,5 -10,0 5 3 14 7 N 1018,1 38 0,0
17.02.2019 13:00:00 1,6 -10,6 5 3 17 9 N 1017,9 38 0,0
17.02.2019 12:00:00 1,5 -10,6 5 3 18 10 NNW 1017,7 40 0,0
17.02.2019 11:00:00 0,8 -7,4 9 5 20 11 NW 1017,0 45 0,0
17.02.2019 10:00:00 -0,4 -8,8 9 5 17 9 NNW 1016,4 37 0,0
17.02.2019 09:00:00 -2,2 -7,7 9 5 19 10 NW 1015,4 40 0,0
17.02.2019 08:00:00 -2,5 -5,3 4 2 14 8 NNW 1014,7 39 0,0
17.02.2019 07:00:00 -2,2 -4,5 7 4 24 13 WNW 1013,4 50 0,0
17.02.2019 06:00:00 -2,0 -4,5 13 7 23 12 WNW 1012,1 50 0,0
17.02.2019 05:00:00 -1,6 -4,3 10 6 23 13 WNW 1011,2 50 0,0
17.02.2019 04:00:00 -1,2 -4,2 12 6 23 12 WNW 1010,3 50 0,0
17.02.2019 03:00:00 -1,1 -4,3 10 5 25 13 WNW 1009,0 50 0,0
17.02.2019 02:00:00 -0,4 -4,5 11 6 31 17 WNW 1007,8 50 0,0
17.02.2019 01:00:00 -0,4 -4,8 17 9 33 18 W 1006,0 50 0,0
17.02.2019 00:00:00 0,2 -4,8 13 7 41 22 NNW 1005,3 50 0,0
16.02.2019 23:00:00 0,2 -4,6 20 11 38 21 W 1003,5 50 0,0
16.02.2019 22:00:00 0,5 -4,9 20 11 51 28 WNW 1002,7 50 0,0
16.02.2019 21:00:00 0,7 -5,5 28 15 48 26 W 1001,8 50 0,0
16.02.2019 20:00:00 1,0 -5,7 28 15 54 29 W 1001,2 50 0,0
16.02.2019 19:00:00 1,5 -5,6 27 15 51 28 W 1000,9 40 0,0
16.02.2019 18:00:00 1,8 -5,6 22 12 41 22 W 1000,9 35 0,0
16.02.2019 17:00:00 2,2 -5,9 20 11 35 19 W 1000,5 41 0,0
16.02.2019 16:00:00 2,8 -4,4 18 10 57 31 WNW 1000,2 43 0,0
16.02.2019 15:00:00 3,6 -3,9 22 12 54 29 WNW 999,9 40 0,0
16.02.2019 14:00:00 4,7 -4,6 25 13 50 27 WNW 999,3 44 0,0
16.02.2019 13:00:00 4,7 -2,4 18 10 44 24 W 998,9 37 0,0
16.02.2019 12:00:00 4,8 -2,5 24 13 38 20 W 998,7 36 0,0
16.02.2019 11:00:00 4,7 -1,1 22 12 36 20 W 999,1 50 0,0
16.02.2019 10:00:00 4,2 -0,4 18 10 34 18 WNW 998,9 50 0,0
16.02.2019 09:00:00 3,6 2,7 10 5 25 13 WNW 998,7 50 0,0
16.02.2019 08:00:00 -3,7 -3,7 3 1 7 4 NE 999,2 40 0,0
16.02.2019 07:00:00 -6,7 -7,2 2 1 9 5 ENE 999,9 48 0,0
16.02.2019 06:00:00 -6,6 -7,1 0 0 5 3 N 999,8 50 0,0
16.02.2019 05:00:00 -6,6 -7,3 0 0 5 3 N 1000,1 0,3 0,0
16.02.2019 04:00:00 -5,2 -5,9 4 2 8 5 WNW 1001,5 29 0,0
16.02.2019 03:00:00 -4,5 -4,8 0 0 4 2 N 1002,3 0,4 0,0
16.02.2019 02:00:00 -4,1 -4,5 2 1 4 2 W 1003,8 9 0,0
16.02.2019 01:00:00 -3,4 -3,4 0 0 4 2 N 1004,8 9 0,0
16.02.2019 00:00:00 -2,4 -2,4 0 0 6 4 N 1005,8 2,2 0,0
15.02.2019 23:00:00 -1,7 -1,7 0 0 4 2 N 1006,9 10 0,0
15.02.2019 22:00:00 -0,5 -0,5 0 0 3 2 N 1008,5 14 0,0
15.02.2019 21:00:00 -0,4 -0,4 2 1 6 4 NW 1009,9 23 0,0
15.02.2019 20:00:00 0,3 0,3 2 1 8 5 ENE 1010,8 50 0,0
15.02.2019 19:00:00 -0,1 -0,1 2 1 6 3 S 1011,4 47 0,0
15.02.2019 18:00:00 -0,9 -0,9 3 1 6 3 W 1011,6 21 0,0
15.02.2019 17:00:00 0,9 0,6 4 2 8 4 SW 1011,9 50 0,0
15.02.2019 16:00:00 2,5 1,0 5 3 8 4 SSW 1011,9 50 0,0
15.02.2019 15:00:00 3,6 1,3 6 3 11 6 SSE 1012,3 50 0,0
15.02.2019 14:00:00 3,7 0,6 7 4 16 9 SW 1012,5 50 0,0
15.02.2019 13:00:00 4,2 -0,4 9 5 29 16 W 1012,4 50 0,0
15.02.2019 12:00:00 3,7 -0,7 14 8 28 15 WSW 1012,4 50 0,0
15.02.2019 11:00:00 3,5 -0,7 14 8 23 12 WSW 1012,6 50 0,0
15.02.2019 10:00:00 3,0 -1,2 12 6 29 16 W 1012,1 49 0,0
15.02.2019 09:00:00 2,9 -2,0 19 10 46 25 W 1011,1 50 0,0
15.02.2019 08:00:00 3,5 -1,3 24 13 45 25 W 1010,2 50 0,0
15.02.2019 07:00:00 3,7 -1,7 22 12 37 20 W 1009,5 33 0,0
15.02.2019 06:00:00 3,9 -2,7 16 8 40 21 W 1009,1 28 0,0
15.02.2019 05:00:00 4,3 -1,7 23 12 40 22 W 1008,5 22 0,0
15.02.2019 04:00:00 4,4 -1,4 16 9 49 27 W 1008,7 24 0,0
15.02.2019 03:00:00 3,9 -1,5 14 8 33 18 W 1009,0 21 0,0
15.02.2019 02:00:00 4,6 -1,4 16 9 41 22 W 1008,5 19 0,0
15.02.2019 01:00:00 4,9 -2,0 20 11 49 27 W 1007,9 23 0,0
15.02.2019 00:00:00 4,9 -1,8 18 10 46 25 W 1007,7 17 0,0
14.02.2019 23:00:00 5,2 -1,5 19 10 43 23 W 1007,9 13 0,0
14.02.2019 22:00:00 5,3 -1,2 22 12 56 30 W 1007,4 13 0,0
14.02.2019 21:00:00 5,6 -0,9 24 13 56 30 W 1007,0 13 0,0
14.02.2019 20:00:00 5,7 0,7 23 12 47 25 W 1006,6 31 0,0
14.02.2019 19:00:00 6,1 1,6 22 12 66 35 W 1005,9 36 0,0
14.02.2019 18:00:00 6,4 1,3 24 13 44 24 W 1005,1 40 0,0
14.02.2019 17:00:00 6,5 2,2 18 10 55 30 W 1005,2 37 0,0
14.02.2019 16:00:00 6,9 1,8 25 13 44 24 WSW 1004,2 50 0,0
14.02.2019 15:00:00 6,5 1,2 19 10 34 18 WSW 1005,5 50 0,0
14.02.2019 14:00:00 5,3 3,3 10 5 30 16 WNW 1005,9 45 0,1
14.02.2019 13:00:00 5,4 -0,2 11 6 21 11 WSW 1005,1 38 0,0
14.02.2019 12:00:00 2,8 0,2 7 4 13 7 E 1006,3 31 0,0
14.02.2019 11:00:00 2,6 0,5 10 6 20 11 E 1007,6 27 0,0
14.02.2019 10:00:00 2,2 0,3 8 4 17 9 ESE 1008,7 23 0,0
14.02.2019 09:00:00 1,9 0,9 10 5 17 9 SSE 1010,1 20 0,0
14.02.2019 08:00:00 2,0 1,6 13 7 19 10 S 1011,5 19 0,0
14.02.2019 07:00:00 1,5 1,5 4 2 13 7 ENE 1011,8 15 0,0
14.02.2019 06:00:00 1,6 1,6 3 2 16 9 SE 1012,8 14 0,0
14.02.2019 05:00:00 1,8 1,8 7 4 27 15 SSW 1013,9 6 0,3
14.02.2019 04:00:00 0,4 -0,7 3 1 10 5 S 1014,7 24 0,0
14.02.2019 03:00:00 -1,5 -2,1 0 0 5 3 N 1015,1 50 0,0
14.02.2019 02:00:00 -2,1 -2,7 0 0 6 4 N 1015,3 50 0,0
14.02.2019 01:00:00 -2,0 -2,8 0 0 9 5 N 1014,9 50 0,0
14.02.2019 00:00:00 -2,5 -3,6 4 2 21 11 WSW 1014,3 50 0,0
13.02.2019 23:00:00 0,7 -2,0 11 6 18 10 WNW 1012,9 50 0,0
13.02.2019 22:00:00 0,5 -1,4 7 4 18 10 NNW 1011,7 50 0,0
13.02.2019 21:00:00 1,4 -0,8 8 4 32 17 NW 1010,3 50 0,0
13.02.2019 20:00:00 2,6 -0,8 13 7 37 20 NW 1008,9 50 0,0
13.02.2019 19:00:00 3,2 -0,6 18 10 50 27 NW 1007,0 50 0,0
13.02.2019 18:00:00 3,7 1,4 27 15 51 28 NW 1004,8 50 0,0
13.02.2019 17:00:00 3,0 2,4 24 13 54 29 WNW 1003,0 35 0,0
13.02.2019 16:00:00 3,0 2,6 24 13 48 26 W 1001,0 16 0,0
13.02.2019 15:00:00 3,2 1,7 23 12 42 23 W 1000,4 26 0,0
13.02.2019 14:00:00 3,2 1,7 19 10 37 20 W 1000,7 17 0,0
13.02.2019 13:00:00 3,0 0,1 20 11 37 20 W 1000,6 23 0,0
13.02.2019 12:00:00 2,6 -0,8 7 4 19 11 WNW 1000,3 19 0,0
13.02.2019 11:00:00 0,8 -2,3 8 5 21 11 WNW 1000,7 25 0,0
13.02.2019 10:00:00 -1,1 -4,1 10 6 26 14 W 1000,6 50 0,0
13.02.2019 09:00:00 -2,6 -2,7 14 8 23 12 W 1000,1 50 0,0
13.02.2019 08:00:00 -4,9 -5,2 5 3 12 6 N 999,5 50 0,0
13.02.2019 07:00:00 -5,2 -5,6 2 1 16 8 SE 998,9 48 0,0
13.02.2019 06:00:00 -5,8 -6,2 0 0 7 4 N 999,5 - 0,0
13.02.2019 05:00:00 -6,5 -7,0 5 3 9 5 SE 999,7 1,3 0,1
13.02.2019 04:00:00 -8,0 -8,7 4 2 6 4 SE 1000,4 9 0,1
13.02.2019 03:00:00 -7,8 -8,3 0 0 4 2 N 1001,2 3,6 0,3
13.02.2019 02:00:00 -8,8 -9,6 0 0 8 4 N 1002,3 4,0 0,1
13.02.2019 01:00:00 -8,5 -9,2 6 3 9 5 ESE 1003,5 27 0,0
13.02.2019 00:00:00 -11,3 -12,3 3 1 3 2 W 1004,8 50 0,0
12.02.2019 23:00:00 -12,2 -13,2 0 0 3 1 N 1005,9 50 0,0
12.02.2019 22:00:00 -13,6 -15,0 0 0 5 3 N 1007,4 45 0,0
12.02.2019 21:00:00 -12,1 -13,0 0 0 7 4 N 1008,1 6 0,0
12.02.2019 20:00:00 -9,8 -10,6 0 0 6 4 N 1008,8 1,9 0,0

tt = Température de l'air
td = dewpoint
ff = Vitesse du vent
fx = gusts
dd = Direction du vent
ppp = reduced air pressure
vv = visibility
rr = Quantités de précipitations

stations d'obs. à proximité